TimeCDT,TemperatureF,Dew PointF,Humidity,Sea Level PressureIn,VisibilityMPH,Wind Direction,Wind SpeedMPH,Gust SpeedMPH,PrecipitationIn,Events,Conditions,WindDirDegrees,DateUTC
12:53 AM,57.0,54.0,89,30.11,8.0,Calm,Calm,-,0.00,,Overcast,0,2013-10-27 05:53:00
1:53 AM,57.9,55.0,90,30.10,7.0,Calm,Calm,-,N/A,,Overcast,0,2013-10-27 06:53:00
2:31 AM,57.2,55.4,94,30.10,6.0,West,3.5,-,N/A,,Overcast,260,2013-10-27 07:31:00
2:53 AM,57.0,55.0,93,30.09,5.0,Calm,Calm,-,N/A,,Overcast,0,2013-10-27 07:53:00
3:14 AM,57.2,55.4,94,30.09,5.0,Calm,Calm,-,N/A,,Overcast,0,2013-10-27 08:14:00
3:53 AM,57.0,55.0,93,30.08,5.0,West,4.6,-,N/A,,Overcast,270,2013-10-27 08:53:00
4:53 AM,57.0,55.0,93,30.07,5.0,Calm,Calm,-,N/A,,Overcast,0,2013-10-27 09:53:00
5:53 AM,57.0,55.0,93,30.06,5.0,Calm,Calm,-,N/A,,Overcast,0,2013-10-27 10:53:00
6:53 AM,57.9,54.0,87,30.06,10.0,Calm,Calm,-,N/A,,Overcast,0,2013-10-27 11:53:00
7:53 AM,57.9,54.0,87,30.07,7.0,Calm,Calm,-,N/A,,Overcast,0,2013-10-27 12:53:00
8:53 AM,57.9,55.0,90,30.09,6.0,Calm,Calm,-,N/A,,Overcast,0,2013-10-27 13:53:00
9:53 AM,59.0,55.0,87,30.10,5.0,Calm,Calm,-,N/A,,Overcast,0,2013-10-27 14:53:00
10:32 AM,60.8,55.4,82,30.10,6.0,WNW,3.5,-,N/A,,Overcast,290,2013-10-27 15:32:00
10:53 AM,60.1,55.0,83,30.10,7.0,Calm,Calm,-,N/A,,Overcast,0,2013-10-27 15:53:00
11:01 AM,60.8,55.4,82,30.11,7.0,Calm,Calm,-,N/A,,Overcast,0,2013-10-27 16:01:00
11:53 AM,62.1,55.0,78,30.10,8.0,Calm,Calm,-,N/A,,Overcast,0,2013-10-27 16:53:00
12:53 PM,68.0,55.9,65,30.07,9.0,Variable,4.6,-,N/A,,Scattered Clouds,0,2013-10-27 17:53:00
1:00 PM,66.2,55.4,68,30.08,10.0,SW,4.6,-,N/A,,Mostly Cloudy,220,2013-10-27 18:00:00
1:39 PM,64.4,55.4,73,30.06,9.0,WSW,5.8,-,N/A,,Mostly Cloudy,250,2013-10-27 18:39:00
1:53 PM,66.9,54.0,63,30.04,10.0,West,3.5,-,N/A,,Partly Cloudy,270,2013-10-27 18:53:00
2:53 PM,68.0,54.0,61,30.02,10.0,SW,5.8,-,N/A,,Clear,230,2013-10-27 19:53:00
3:53 PM,70.0,52.0,53,30.01,10.0,WSW,3.5,-,N/A,,Clear,250,2013-10-27 20:53:00
4:53 PM,69.1,53.1,57,30.01,10.0,Variable,4.6,-,N/A,,Clear,0,2013-10-27 21:53:00
5:53 PM,66.0,53.1,63,30.00,10.0,South,3.5,-,N/A,,Clear,180,2013-10-27 22:53:00
6:53 PM,63.0,55.0,75,30.01,10.0,SSE,4.6,-,N/A,,Clear,150,2013-10-27 23:53:00
7:53 PM,59.0,54.0,83,30.01,7.0,Calm,Calm,-,N/A,,Partly Cloudy,0,2013-10-28 00:53:00
8:53 PM,57.9,54.0,87,30.03,6.0,Calm,Calm,-,N/A,,Clear,0,2013-10-28 01:53:00
9:53 PM,55.9,54.0,93,30.04,5.0,Calm,Calm,-,N/A,,Clear,0,2013-10-28 02:53:00
10:20 PM,53.6,53.6,100,30.04,1.5,ENE,3.5,-,N/A,,Clear,60,2013-10-28 03:20:00
10:22 PM,53.6,53.6,100,30.04,0.8,ENE,4.6,-,N/A,,Mist,60,2013-10-28 03:22:00
10:29 PM,53.6,53.6,100,30.05,1.5,NE,3.5,-,N/A,,Clear,50,2013-10-28 03:29:00
10:53 PM,55.0,54.0,96,30.05,2.5,NE,3.5,-,N/A,,Partly Cloudy,50,2013-10-28 03:53:00
11:08 PM,55.4,53.6,94,30.06,2.0,NE,3.5,-,N/A,,Mostly Cloudy,40,2013-10-28 04:08:00
11:22 PM,55.4,55.4,100,30.06,1.0,ENE,3.5,-,N/A,,Overcast,60,2013-10-28 04:22:00
11:49 PM,55.4,55.4,100,30.05,2.0,ENE,3.5,-,N/A,,Overcast,70,2013-10-28 04:49:00
11:53 PM,55.9,55.0,97,30.05,2.5,ENE,3.5,-,N/A,,Overcast,70,2013-10-28 04:53:00